Simultaneous Nadir Overpasses (SNOs) Predictions

Prediction of SNOs between GOES-15 and NOAA-20 Satellite Orbit:

Table of predicted SNOs for the next 14.0 days since TLE Epoch: 10/30/2020
Index Date Time (GOES-15) GOES-15 Lat,Lon NOAA-20 Lat,Lon Distance(km) Time Diff (sec)
1 10/31/2020 10:13:50 -0.12,-128.10 0.72,-131.88 430.52 80
2 11/01/2020 09:52:25 -0.12,-128.07 -0.28,-127.34 82.59 80
3 11/03/2020 21:58:18 0.11,-127.99 0.09,-128.12 14.10 80
4 11/04/2020 21:36:54 0.13,-127.96 1.08,-123.58 498.10 80
5 11/06/2020 10:01:22 -0.11,-127.90 0.11,-128.85 108.31 80
6 11/07/2020 09:39:58 -0.12,-127.87 -0.94,-124.33 403.64 80
7 11/08/2020 22:04:35 0.10,-127.81 -0.29,-129.63 206.78 80
8 11/09/2020 21:43:10 0.12,-127.77 0.70,-125.10 304.71 80
9 11/11/2020 10:07:38 -0.09,-127.71 0.50,-130.37 302.76 80
10 11/12/2020 09:46:14 -0.11,-127.67 -0.50,-125.83 208.75 80
